N5MCB Weather Reports


time (UTC)temp
C
wind
direction
speed
KPH
gust
KPH
rain 1hr
cm
rain 24hr
cm
rain mn
cm
humidity
%
barometer
mb
20260509053541 20 106 0.0 0.0 0.00 0.00 0.00 90 1009.7
20260509053033 20 101 0.0 0.0 0.00 0.00 0.00 91 1009.9
20260509052525 20 103 0.0 0.0 0.00 0.00 0.00 91 1010.1
20260509052234 20 101 0.0 0.0 0.00 0.00 0.00 91 1010.2
20260509051505 20 103 0.0 0.0 0.00 0.00 0.00 91 1010.5
20260509050958 20 98 0.0 0.0 0.00 0.00 0.00 91 1010.3
20260509050450 20 101 0.0 0.0 0.00 0.00 0.00 91 1010.2
20260509045942 20 100 0.0 0.0 0.00 0.00 0.00 91 1010.6
20260509045434 20 95 1.6 3.2 0.00 0.00 0.00 91 1010.8
20260509045147 20 107 1.6 1.6 0.00 0.00 0.00 90 1010.5
20260509044416 20 99 1.6 1.6 0.00 0.00 0.00 89 1010.4
20260509043907 20 95 0.0 0.0 0.00 0.00 0.00 88 1009.9
20260509043359 20 97 0.0 1.6 0.00 0.00 0.00 86 1009.5
20260509043110 21 113 0.0 0.0 0.00 0.00 0.00 86 1009.2
20260509042603 21 103 0.0 0.0 0.00 0.00 0.00 85 1009.3
20260509042052 21 105 0.0 0.0 0.00 0.00 0.00 85 1009.7
20260509041324 21 102 0.0 0.0 0.00 0.00 0.00 84 1009.2
20260509041303 21 97 0.0 0.0 0.00 0.00 0.00 84 1009.1
20260509040308 21 96 0.0 0.0 0.00 0.00 0.00 84 1009.1
20260509035800 21 101 0.0 1.6 0.00 0.00 0.76 85 1008.9
20260509035249 21 134 1.6 3.2 0.00 0.00 0.76 85 1008.9
20260509034741 21 104 1.6 1.6 0.00 0.00 0.76 85 1008.7
20260509034718 20 102 1.6 3.2 0.18 0.00 0.76 87 1008.4
20260509033725 21 97 0.0 1.6 0.18 0.00 0.76 87 1008.9
20260509033215 21 103 1.6 3.2 0.00 0.00 0.74 84 1009.7
20260509033153 21 101 1.6 1.6 0.00 0.00 0.74 80 1010.2
20260509032420 22 121 1.6 1.6 0.00 0.00 0.74 79 1010.3
20260509031909 22 103 1.6 1.6 0.00 0.00 0.74 78 1010.2
20260509031140 22 94 0.0 0.0 0.00 0.00 0.74 78 1009.8
20260509031120 22 94 0.0 0.0 0.00 0.00 0.74 78 1009.7
20260509030347 22 93 0.0 0.0 0.00 0.00 0.74 78 1009.9
20260509025616 22 92 0.0 1.6 0.00 0.00 0.74 77 1009.8
20260509025329 22 97 0.0 0.0 0.00 0.00 0.74 77 1009.6
20260509025047 22 98 0.0 0.0 0.00 0.00 0.74 77 1009.6
20260509024049 22 95 0.0 0.0 0.00 0.00 0.74 77 1009.3
20260509023541 22 98 0.0 0.0 0.00 0.00 0.74 77 1009.3
20260509023033 22 94 0.0 0.0 0.00 0.00 0.74 77 1009.4
20260509022744 22 94 0.0 0.0 0.00 0.00 0.74 77 1009.1
20260509022015 22 97 0.0 0.0 0.00 0.00 0.74 76 1008.9
20260509021730 22 102 1.6 3.2 0.00 0.00 0.74 76 1008.7
20260509020956 22 156 4.8 6.4 0.00 0.00 0.74 76 1008.3
20260509020449 22 119 1.6 3.2 0.00 0.00 0.74 76 1007.9
20260509015942 22 119 3.2 4.8 0.00 0.00 0.74 75 1008.2
20260509015434 22 100 3.2 3.2 0.00 0.00 0.74 75 1008.3
20260509014925 22 102 0.0 1.6 0.00 0.00 0.74 75 1008.3
20260509014635 22 103 1.6 1.6 0.00 0.00 0.74 75 1008.0
20260509014127 22 98 1.6 1.6 0.00 0.00 0.74 74 1008.1
20260509013359 22 153 3.2 4.8 0.00 0.00 0.74 74 1008.1
20260509012849 22 144 3.2 3.2 0.00 0.00 0.74 74 1008.0
20260509012341 22 95 1.6 3.2 0.00 0.00 0.74 73 1008.1
20260509011833 22 95 3.2 3.2 0.00 0.00 0.74 73 1008.1
20260509011325 22 80 1.6 1.6 0.00 0.00 0.74 73 1008.1
20260509010813 22 97 1.6 1.6 0.00 0.00 0.74 73 1008.3
20260509010308 22 98 0.0 1.6 0.00 0.00 0.74 72 1008.2
20260509005800 22 103 0.0 0.0 0.00 0.00 0.74 72 1008.2
20260509005250 22 111 3.2 3.2 0.00 0.00 0.74 72 1008.2
20260509004742 23 125 3.2 3.2 0.00 0.00 0.74 72 1008.0
20260509004233 23 95 1.6 1.6 0.00 0.00 0.74 72 1007.9
20260509003725 23 101 3.2 4.8 0.00 0.00 0.74 71 1007.9
20260509003215 23 90 3.2 3.2 0.00 0.00 0.74 71 1007.8
20260509002926 23 125 3.2 4.8 0.00 0.00 0.74 71 1007.7
20260509002419 23 81 3.2 4.8 0.00 0.00 0.74 70 1007.4
20260509001908 23 73 3.2 4.8 0.00 0.00 0.74 70 1007.7
20260509001140 23 69 1.6 1.6 0.00 0.00 0.74 70 1007.6
20260509000631 23 119 3.2 3.2 0.00 0.00 0.74 70 1007.6
20260509000126 23 112 3.2 4.8 0.00 0.00 0.74 69 1007.8
20260509000100 23 128 1.6 3.2 0.00 0.00 0.74 69 1007.8
20260508235107 23 111 3.2 3.2 0.00 0.00 0.74 69 1007.8
20260508234559 24 76 3.2 4.8 0.00 0.00 0.74 69 1007.8
20260508234049 24 103 3.2 3.2 0.00 0.00 0.74 68 1007.8
20260508233802 24 114 1.6 1.6 0.00 0.00 0.74 68 1007.7
20260508233255 24 98 0.0 0.0 0.00 0.00 0.74 68 1008.0
20260508232528 25 132 0.0 0.0 0.00 0.00 0.74 67 1007.9
20260508232022 25 109 0.0 0.0 0.00 0.00 0.74 67 1007.9
20260508231737 25 139 4.8 4.8 0.00 0.00 0.74 66 1008.0
20260508231010 25 101 3.2 3.2 0.00 0.00 0.74 67 1007.8
20260508230723 25 113 3.2 3.2 0.00 0.00 0.74 66 1008.0
20260508225959 25 140 3.2 4.8 0.00 0.00 0.74 67 1007.9
20260508225451 25 101 1.6 1.6 0.00 0.00 0.74 67 1007.9
20260508224942 25 188 3.2 4.8 0.00 0.00 0.74 66 1008.0
20260508224654 25 126 0.0 1.6 0.00 0.00 0.74 66 1007.9
20260508224143 25 132 0.0 0.0 0.00 0.00 0.74 65 1008.1
20260508223417 25 141 4.8 6.4 0.00 0.00 0.74 66 1008.1
20260508222911 25 106 4.8 6.4 0.00 0.00 0.74 65 1008.1
20260508222405 25 101 0.0 0.0 0.00 0.00 0.74 66 1008.0
20260508221859 25 117 6.4 6.4 0.00 0.00 0.74 66 1008.0
20260508221352 25 127 3.2 4.8 0.00 0.00 0.74 65 1008.0
20260508220846 25 142 3.2 3.2 0.00 0.00 0.74 64 1008.1
20260508220340 25 121 1.6 1.6 0.00 0.00 0.74 64 1008.1
20260508220053 25 109 0.0 1.6 0.00 0.00 0.74 64 1007.9
20260508215546 25 206 3.2 3.2 0.00 0.00 0.74 64 1008.0
20260508214815 25 120 6.4 9.7 0.00 0.00 0.74 64 1007.9
20260508214307 25 94 3.2 4.8 0.00 0.00 0.74 63 1007.8
20260508214020 25 88 3.2 3.2 0.00 0.00 0.74 63 1007.7
20260508213249 25 104 0.0 1.6 0.00 0.00 0.74 64 1007.8
20260508212741 25 87 1.6 1.6 0.00 0.00 0.74 63 1007.9
20260508212233 25 132 3.2 3.2 0.00 0.00 0.74 63 1008.0
20260508211726 25 101 1.6 3.2 0.00 0.00 0.74 63 1008.3
20260508211216 25 197 3.2 4.8 0.00 0.00 0.74 62 1008.4
20260508210706 25 97 3.2 6.4 0.00 0.00 0.74 62 1008.7
20260508210158 26 97 0.0 0.0 0.00 0.00 0.74 61 1008.7
20260508205650 26 87 3.2 3.2 0.00 0.00 0.74 61 1008.9
20260508205141 25 142 0.0 1.6 0.00 0.00 0.74 61 1009.0
20260508204633 25 107 3.2 6.4 0.00 0.00 0.74 61 1009.2
20260508204345 25 136 1.6 1.6 0.00 0.00 0.74 62 1009.4
20260508203838 26 166 1.6 4.8 0.00 0.00 0.74 60 1009.4
20260508203326 25 88 1.6 3.2 0.00 0.00 0.74 61 1009.4
20260508202559 25 105 0.0 1.6 0.00 0.00 0.74 62 1009.6
20260508202049 26 97 0.0 1.6 0.00 0.00 0.74 61 1009.6
20260508201542 26 134 1.6 3.2 0.00 0.00 0.74 59 1009.6
20260508201034 26 145 1.6 1.6 0.00 0.00 0.74 59 1009.8
20260508200525 26 102 1.6 1.6 0.00 0.00 0.74 58 1009.8
20260508200235 26 91 0.0 1.6 0.00 0.00 0.74 56 1010.0
20260508195508 26 135 6.4 9.7 0.00 0.00 0.74 57 1009.9
20260508194959 26 153 1.6 1.6 0.00 0.00 0.74 57 1009.9
20260508194451 26 70 1.6 3.2 0.00 0.00 0.74 57 1009.9
20260508193945 26 114 3.2 4.8 0.00 0.00 0.74 58 1010.1
20260508193433 26 104 6.4 6.4 0.00 0.00 0.74 57 1010.0
20260508193409 26 208 1.6 1.6 0.00 0.00 0.74 57 1010.1
20260508192415 26 109 0.0 1.6 0.00 0.00 0.74 57 1010.0
20260508191907 26 177 3.2 4.8 0.00 0.00 0.74 56 1010.1
20260508191847 26 91 4.8 9.7 0.00 0.00 0.74 56 1010.3
20260508191336 26 100 0.0 0.0 0.00 0.00 0.74 56 1010.2
20260508190340 26 100 1.6 3.2 0.00 0.00 0.74 56 1010.2
20260508185834 25 103 1.6 1.6 0.00 0.00 0.74 58 1010.4
20260508185325 25 79 1.6 1.6 0.00 0.00 0.74 57 1010.4
20260508184815 25 148 0.0 1.6 0.00 0.00 0.74 58 1010.2
20260508184307 25 98 0.0 1.6 0.00 0.00 0.74 59 1010.5
20260508183759 25 117 0.0 0.0 0.00 0.00 0.74 59 1010.5
20260508183249 25 107 3.2 3.2 0.00 0.00 0.74 58 1010.8
20260508183001 25 139 1.6 1.6 0.00 0.00 0.74 58 1010.7
20260508182233 25 111 0.0 0.0 0.00 0.00 0.74 58 1010.9
20260508181725 25 101 0.0 1.6 0.00 0.00 0.74 59 1010.9
20260508181700 25 136 3.2 4.8 0.00 0.00 0.74 58 1010.9
20260508180708 25 102 1.6 1.6 0.00 0.00 0.74 60 1011.0
20260508180157 25 153 4.8 6.4 0.00 0.00 0.74 59 1011.3
20260508175909 25 109 6.4 6.4 0.00 0.00 0.74 57 1011.3
20260508175140 25 96 0.0 0.0 0.00 0.00 0.74 60 1011.0
20260508174633 25 97 4.8 4.8 0.00 0.00 0.74 58 1011.1
20260508174609 25 111 3.2 3.2 0.00 0.00 0.74 58 1011.3
20260508173836 25 105 0.0 0.0 0.00 0.00 0.74 58 1011.5
20260508173107 25 97 0.0 0.0 0.00 0.00 0.74 61 1011.8
20260508172559 24 99 0.0 0.0 0.00 0.00 0.74 60 1012.0
20260508172311 24 78 1.6 1.6 0.00 0.00 0.74 61 1012.2
20260508171542 23 111 1.6 1.6 0.00 0.00 0.74 60 1012.2
20260508171034 24 95 4.8 6.4 0.00 0.00 0.74 59 1012.4
20260508170745 23 102 6.4 11.3 0.00 0.00 0.74 64 1012.4
20260508170013 23 100 0.0 1.6 0.00 0.00 0.74 60 1012.5
20260508165507 23 78 3.2 3.2 0.00 0.00 0.74 60 1012.5
20260508165219 22 106 1.6 1.6 0.00 0.00 0.74 63 1012.7
20260508164708 22 102 3.2 4.8 0.00 0.00 0.74 61 1012.8
20260508163941 21 107 1.6 3.2 0.00 0.00 0.74 65 1013.0
20260508162925 21 166 4.8 6.4 0.00 0.00 0.74 66 1012.9
20260508162635 21 93 4.8 6.4 0.00 0.00 0.74 68 1012.9
20260508162128 21 106 1.6 3.2 0.00 0.00 0.74 69 1013.1
20260508161400 20 94 0.0 1.6 0.00 0.00 0.74 71 1013.2
20260508160850 20 103 1.6 1.6 0.00 0.00 0.74 71 1013.2
20260508155831 20 84 0.0 1.6 0.00 0.00 0.74 72 1013.2
20260508155325 20 99 0.0 0.0 0.00 0.00 0.74 73 1013.2
20260508154815 20 100 3.2 4.8 0.00 0.00 0.74 72 1013.4
20260508154307 20 191 4.8 6.4 0.00 0.00 0.74 71 1013.4
20260508153759 20 105 1.6 1.6 0.00 0.00 0.74 73 1013.7
20260508153511 20 104 1.6 1.6 0.00 0.00 0.74 73 1013.6
20260508152741 20 109 4.8 6.4 0.00 0.00 0.74 74 1013.5
20260508152452 20 139 0.0 3.2 0.00 0.00 0.74 76 1013.7
20260508151725 20 158 0.0 1.6 0.00 0.00 0.74 74 1013.4
20260508151216 20 92 1.6 1.6 0.00 0.00 0.74 76 1013.4
20260508151152 19 98 0.0 0.0 0.00 0.00 0.74 77 1013.5
20260508150645 20 93 3.2 4.8 0.00 0.00 0.74 77 1013.8
20260508145908 19 110 3.2 3.2 0.00 0.00 0.74 79 1013.7
20260508145401 18 99 0.0 0.0 0.00 0.00 0.74 82 1013.4
20260508144633 18 131 1.6 3.2 0.00 0.00 0.74 83 1013.8
20260508144125 18 100 0.0 0.0 0.00 0.00 0.74 83 1013.9
20260508143615 18 148 3.2 3.2 0.00 0.00 0.74 81 1014.0
20260508143107 18 151 1.6 1.6 0.00 0.00 0.74 82 1014.0
20260508143047 18 109 1.6 3.2 0.00 0.00 0.74 81 1013.8
20260508142314 17 118 3.2 4.8 0.00 0.00 0.74 81 1013.9
20260508141806 17 80 3.2 3.2 0.00 0.00 0.74 82 1014.0
20260508141525 17 120 1.6 3.2 0.00 0.00 0.74 85 1014.1
20260508140534 18 101 0.0 0.0 0.00 0.00 0.74 85 1014.1
20260508140027 17 95 0.0 0.0 0.00 0.00 0.74 88 1014.0
20260508140007 17 103 0.0 0.0 0.00 0.00 0.74 90 1014.0
20260508135234 17 93 0.0 0.0 0.00 0.00 0.74 89 1014.1
20260508134506 17 155 3.2 4.8 0.00 0.00 0.74 90 1014.0
20260508133958 16 98 0.0 0.0 0.00 0.00 0.74 92 1014.0
20260508133450 16 93 1.6 3.2 0.00 0.00 0.74 93 1014.0
20260508133202 16 104 0.0 0.0 0.00 0.00 0.74 94 1014.2
20260508132433 16 101 0.0 0.0 0.00 0.00 0.74 94 1014.2
20260508131927 16 119 3.2 4.8 0.00 0.00 0.74 94 1013.9
20260508131421 16 98 0.0 0.0 0.00 0.00 0.74 96 1013.8
20260508130915 16 101 0.0 0.0 0.00 0.00 0.74 96 1013.7
20260508130409 16 123 1.6 1.6 0.00 0.00 0.74 96 1013.6
20260508125903 16 123 3.2 3.2 0.00 0.00 0.74 96 1013.8
20260508125356 15 122 1.6 1.6 0.00 0.00 0.74 96 1014.0
20260508125333 15 118 1.6 3.2 0.00 0.00 0.74 96 1013.8
20260508124601 15 97 0.0 0.0 0.00 0.00 0.74 96 1014.3
20260508124054 15 100 0.0 0.0 0.00 0.00 0.74 96 1014.5
20260508123547 15 104 0.0 0.0 0.00 0.00 0.74 96 1014.7
20260508123035 15 98 0.0 0.0 0.00 0.00 0.74 96 1014.3
20260508122308 15 100 0.0 0.0 0.00 0.00 0.74 96 1014.6
20260508121802 15 100 0.0 0.0 0.00 0.00 0.74 96 1014.3
20260508121256 15 107 0.0 0.0 0.00 0.00 0.74 96 1014.4
20260508121011 15 102 0.0 0.0 0.00 0.00 0.74 96 1014.4
20260508120243 15 99 0.0 0.0 0.00 0.00 0.74 95 1014.3
20260508115956 15 99 0.0 0.0 0.00 0.00 0.74 95 1014.1
20260508115453 15 108 1.6 1.6 0.13 0.00 0.74 95 1014.0
20260508114724 15 96 0.0 0.0 0.30 0.00 0.74 95 1014.3
20260508114216 15 98 0.0 0.0 0.79 0.00 0.71 95 1014.0
20260508113931 15 100 1.6 3.2 1.19 0.00 0.69 95 1013.7
20260508113204 15 119 1.6 1.6 0.61 0.00 0.58 95 1014.1
20260508112909 15 120 1.6 3.2 0.00 0.00 0.48 95 1013.7
20260508112142 15 99 0.0 0.0 0.00 0.00 0.48 94 1013.9
20260508111854 15 110 1.6 3.2 0.30 0.00 0.48 94 1013.5
20260508111129 15 99 0.0 0.0 0.30 0.00 0.48 94 1013.7
20260508110622 14 111 1.6 3.2 0.18 0.00 0.43 94 1013.8
20260508110602 15 116 0.0 0.0 0.18 0.00 0.43 94 1014.0
20260508105610 15 116 1.6 1.6 0.61 0.00 0.41 94 1014.0
20260508105104 15 112 1.6 1.6 0.71 0.00 0.41 94 1014.3
20260508105045 15 98 1.6 1.6 0.66 0.00 0.33 93 1014.1
20260508104049 15 100 0.0 0.0 0.66 0.00 0.28 92 1014.7
20260508103801 15 100 0.0 1.6 0.71 0.00 0.23 91 1014.1
20260508103254 16 122 3.2 3.2 1.02 0.00 0.18 89 1014.1
20260508102746 16 102 1.6 1.6 0.61 0.00 0.10 85 1013.7
20260508102016 16 87 0.0 1.6 0.00 0.00 0.00 82 1014.7
20260508101728 16 119 0.0 1.6 0.00 0.00 0.00 82 1014.0
20260508101225 16 102 0.0 0.0 0.00 0.00 0.00 81 1013.1
20260508100458 16 127 3.2 4.8 0.00 0.00 0.00 82 1013.0
20260508095951 16 117 1.6 1.6 0.00 0.00 0.00 83 1013.0
20260508095445 16 98 0.0 0.0 0.00 0.00 0.00 83 1013.0
20260508094940 16 100 0.0 0.0 0.00 0.00 0.00 84 1013.0
20260508094432 16 107 0.0 0.0 0.00 0.00 0.00 84 1013.1
20260508093924 16 176 3.2 3.2 0.00 0.00 0.00 84 1013.0
20260508093416 16 101 1.6 1.6 0.00 0.00 0.00 84 1013.1
20260508092906 16 121 0.0 1.6 0.00 0.00 0.00 85 1013.0
20260508092358 16 155 1.6 1.6 0.00 0.00 0.00 84 1013.2
20260508091851 16 114 1.6 1.6 0.00 0.00 0.00 83 1013.1
20260508091345 16 129 0.0 0.0 0.00 0.00 0.00 83 1013.3
20260508091059 16 96 0.0 0.0 0.00 0.00 0.00 83 1013.2
20260508090333 16 106 0.0 0.0 0.00 0.00 0.00 83 1013.3
20260508085826 16 95 3.2 4.8 0.00 0.00 0.00 83 1013.4
20260508085541 16 102 0.0 0.0 0.00 0.00 0.00 83 1013.9
20260508084815 16 100 0.0 0.0 0.00 0.00 0.00 82 1013.8
20260508084527 16 99 0.0 0.0 0.00 0.00 0.00 81 1014.0
20260508083759 16 97 0.0 0.0 0.00 0.00 0.00 81 1014.1
20260508083249 16 129 0.0 0.0 0.00 0.00 0.00 81 1013.9
20260508082741 16 94 1.6 1.6 0.00 0.00 0.00 80 1013.3
20260508082233 16 97 0.0 0.0 0.00 0.00 0.00 79 1013.7
20260508081725 17 101 0.0 0.0 0.00 0.00 0.00 79 1013.8
20260508081435 17 89 1.6 1.6 0.00 0.00 0.00 78 1013.7
20260508080928 17 110 3.2 3.2 0.00 0.00 0.00 77 1013.9
20260508080159 17 96 1.6 1.6 0.00 0.00 0.00 77 1014.3
20260508075649 16 92 0.0 0.0 0.00 0.00 0.00 78 1014.8
20260508075138 16 98 0.0 0.0 0.00 0.00 0.00 78 1015.0
20260508074855 16 100 0.0 0.0 0.00 0.00 0.00 78 1015.1
20260508074344 16 101 0.0 0.0 0.00 0.00 0.00 79 1014.8
20260508073615 16 103 0.0 0.0 0.00 0.00 0.00 79 1014.8
20260508073107 16 101 0.0 0.0 0.00 0.00 0.00 79 1014.7
20260508072559 16 102 0.0 0.0 0.00 0.00 0.00 79 1014.4
20260508072311 16 102 0.0 0.0 0.00 0.00 0.00 79 1014.3
20260508071542 16 99 0.0 0.0 0.00 0.00 0.00 80 1014.2
20260508071035 16 102 0.0 0.0 0.00 0.00 0.00 80 1014.2
20260508070530 16 99 0.0 0.0 0.00 0.00 0.00 81 1014.6
20260508065012 15 99 0.0 0.0 0.00 0.00 0.00 82 1014.8
20260508064506 15 99 0.0 0.0 0.00 0.00 0.00 82 1014.9
20260508064217 15 100 0.0 0.0 0.00 0.00 0.00 82 1015.3
20260508063450 15 100 0.0 0.0 0.00 0.00 0.00 82 1015.3
20260508062942 15 100 0.0 0.0 0.00 0.00 0.00 83 1015.5
20260508062432 15 100 0.0 0.0 0.00 0.00 0.00 83 1015.3
20260508061926 15 100 0.0 0.0 0.00 0.00 0.00 82 1015.2
20260508061420 15 100 0.0 0.0 0.00 0.00 0.00 83 1015.1
20260508061134 15 100 0.0 0.0 0.00 0.00 0.00 83 1015.0
20260508060404 15 100 0.0 0.0 0.00 0.00 0.00 82 1015.0
20260508055858 15 101 0.0 0.0 0.00 0.00 0.00 82 1015.0
20260508055350 16 100 0.0 0.0 0.00 0.00 0.00 81 1014.9
20260508054839 16 100 0.0 0.0 0.00 0.00 0.00 81 1014.9